sat.trackr.live / text

‹ back to catalog

STARLINK-5837

NORAD 56346 · 2023-058AF

PAYLOAD ACTIVE UNKNOWN

§ Identity

Operator
Country
US
Launch date
2023-04-27
Launch site
AFWTR
Launch vehicle
Mass (kg)
RCS (m²)

Purposes: comms

External: N2YO · Heavens-Above · Gunter

§ Orbital elements

Epoch: 2026-05-24T22:57:44.025120Z

Period
95.64 min
Inclination
97.4513°
Eccentricity
0.0002001
Mean motion
15.05666412 rev/d
Perigee alt
548.1 km
Apogee alt
550.8 km
Semi-major
6,927.6 km
B*
-3.8790e-4
RAAN
144.9770°
Arg perigee
89.6621°
Mean anomaly
270.4836°
Rev number
16,960

§ Raw data

STARLINK-58371 56346U 23058AF  26144.95675955 -.00005654  00000+0 -38790-3 0  99912 56346  97.4513 144.9770 0002001  89.6621 270.4836 15.05666412169600

JSON: /api/v1/satellites/56346 · /tle

For live sub-satellite position, see the globe view (requires WebGL).

§ Visibility from observer

Set your observer location to see the next 7 days of passes ≥ 10°. The values pass through the URL so the page stays shareable.

No JS? Fill the form by hand. The geolocation button needs JavaScript.